Location: Waco, TX
(31.5480°N, 97.1670°W)
Time: 05:34:13
(UTC-05:00)

ISS - Pass Details

Date: 22 June 2018
Orbit: 402 x 406 km, 51.6° (Epoch: 19 June)

Event Time Altitude Azimuth Distance (km) Brightness Sun altitude
Rises 16:04:37 0° 325° (NW) 2,322 0.3 55.1°
Reaches altitude 10° 16:06:52 10° 336° (NNW) 1,459 -0.7 54.6°
Maximum altitude 16:09:47 29° 40° (NE) 763 -2.4 54.0°
Drops below altitude 10° 16:12:42 10° 103° (ESE) 1,451 -1.3 53.4°
Sets 16:14:56 0° 115° (ESE) 2,306 -0.3 52.9°
